| time (UTC) | temp F | wind direction | speed MPH | gust MPH | rain 1hr in | rain 24hr in | rain mn in | humidity % | barometer mb |
| 20260831183027 | 80 | 1 | 5.0 | 10.0 | 0.00 | 0.00 | 0.00 | 35 | 1007.6 |
| 20260831181525 | 79 | 340 | 6.0 | 11.0 | 0.00 | 0.00 | 0.00 | 36 | 1008.0 |
| 20260831180023 | 78 | 309 | 8.0 | 12.0 | 0.00 | 0.00 | 0.00 | 36 | 1008.1 |
| 20260831174521 | 77 | 310 | 3.0 | 13.0 | 0.00 | 0.00 | 0.00 | 38 | 1008.1 |
| 20260831173017 | 76 | 47 | 4.0 | 15.0 | 0.00 | 0.00 | 0.00 | 41 | 1008.3 |
| 20260831171515 | 75 | 233 | 2.0 | 8.0 | 0.00 | 0.00 | 0.00 | 44 | 1008.4 |
| 20260831170012 | 73 | 314 | 9.0 | 14.0 | 0.00 | 0.00 | 0.00 | 44 | 1008.5 |
| 20260831164520 | 73 | 336 | 1.0 | 8.0 | 0.00 | 0.00 | 0.00 | 47 | 1008.5 |
| 20260831163008 | 72 | 321 | 3.0 | 8.0 | 0.00 | 0.00 | 0.00 | 46 | 1008.6 |
| 20260831161507 | 72 | 285 | 2.0 | 5.0 | 0.00 | 0.00 | 0.00 | 47 | 1008.5 |
| 20260831160004 | 70 | 276 | 2.0 | 6.0 | 0.00 | 0.00 | 0.00 | 49 | 1008.4 |
| 20260831154504 | 70 | 349 | 0.0 | 2.0 | 0.00 | 0.00 | 0.00 | 47 | 1008.3 |
| 20260831153004 | 68 | 74 | 0.0 | 4.0 | 0.00 | 0.00 | 0.00 | 47 | 1008.4 |
| 20260831151503 | 69 | 25 | 3.0 | 6.0 | 0.00 | 0.00 | 0.00 | 46 | 1008.4 |
| 20260831150001 | 69 | 57 | 0.0 | 6.0 | 0.00 | 0.00 | 0.00 | 52 | 1008.5 |
| 20260831144501 | 68 | 49 | 1.0 | 18.0 | 0.00 | 0.00 | 0.00 | 52 | 1008.4 |
| 20260831143101 | 68 | 200 | 13.0 | 19.0 | 0.00 | 0.00 | 0.00 | 51 | 1008.5 |
| 20260831141559 | 68 | 199 | 4.0 | 11.0 | 0.00 | 0.00 | 0.00 | 51 | 1008.6 |
| 20260831140059 | 67 | 160 | 8.0 | 16.0 | 0.00 | 0.00 | 0.00 | 52 | 1008.4 |
| 20260831134604 | 66 | 176 | 6.0 | 12.0 | 0.00 | 0.00 | 0.00 | 52 | 1008.5 |
| 20260831133103 | 65 | 277 | 0.0 | 2.0 | 0.00 | 0.00 | 0.00 | 56 | 1008.4 |
| 20260831131602 | 65 | 33 | 0.0 | 3.0 | 0.00 | 0.00 | 0.00 | 57 | 1008.2 |
| 20260831130057 | 68 | 74 | 1.0 | 11.0 | 0.00 | 0.00 | 0.00 | 46 | 1008.2 |
| 20260831124557 | 66 | 138 | 8.0 | 14.0 | 0.00 | 0.00 | 0.00 | 53 | 1008.1 |
| 20260831123157 | 65 | 134 | 6.0 | 10.0 | 0.00 | 0.00 | 0.00 | 53 | 1008.1 |
| 20260831121555 | 66 | 200 | 2.0 | 9.0 | 0.00 | 0.00 | 0.00 | 53 | 1008.2 |
| 20260831120053 | 65 | 143 | 8.0 | 17.0 | 0.00 | 0.00 | 0.00 | 57 | 1008.2 |
| 20260831114554 | 66 | 194 | 15.0 | 24.0 | 0.00 | 0.00 | 0.00 | 57 | 1008.1 |
| 20260831113055 | 66 | 130 | 16.0 | 25.0 | 0.00 | 0.00 | 0.00 | 56 | 1008.0 |
| 20260831111609 | 66 | 211 | 16.0 | 24.0 | 0.00 | 0.00 | 0.00 | 56 | 1008.3 |
| 20260831110050 | 65 | 142 | 17.0 | 25.0 | 0.00 | 0.00 | 0.00 | 60 | 1008.2 |
| 20260831104548 | 66 | 136 | 9.0 | 14.0 | 0.00 | 0.00 | 0.00 | 54 | 1008.3 |
| 20260831103046 | 65 | 177 | 7.0 | 9.0 | 0.00 | 0.00 | 0.00 | 55 | 1008.4 |
| 20260831101551 | 65 | 143 | 3.0 | 4.0 | 0.00 | 0.00 | 0.00 | 51 | 1008.3 |
| 20260831100044 | 66 | 131 | 0.0 | 4.0 | 0.00 | 0.00 | 0.00 | 53 | 1008.2 |
| 20260831094546 | 66 | 158 | 1.0 | 3.0 | 0.00 | 0.00 | 0.00 | 51 | 1008.1 |
| 20260831093141 | 65 | 167 | 2.0 | 6.0 | 0.00 | 0.00 | 0.00 | 53 | 1008.2 |
| 20260831091556 | 65 | 138 | 0.0 | 2.0 | 0.00 | 0.00 | 0.00 | 52 | 1008.1 |
| 20260831090040 | 66 | 156 | 3.0 | 6.0 | 0.00 | 0.00 | 0.00 | 52 | 1008.1 |
| 20260831084541 | 65 | 352 | 1.0 | 6.0 | 0.00 | 0.04 | 0.00 | 54 | 1008.1 |
| 20260831083036 | 66 | 93 | 0.0 | 3.0 | 0.00 | 0.04 | 0.00 | 50 | 1007.9 |
| 20260831081540 | 68 | 91 | 1.0 | 12.0 | 0.00 | 0.04 | 0.00 | 48 | 1008.0 |
| 20260831080057 | 68 | 150 | 1.0 | 5.0 | 0.00 | 0.04 | 0.00 | 49 | 1008.1 |
| 20260831074533 | 69 | 187 | 10.0 | 19.0 | 0.00 | 0.04 | 0.00 | 47 | 1008.3 |
| 20260831073056 | 70 | 134 | 5.0 | 13.0 | 0.00 | 0.04 | 0.00 | 46 | 1008.5 |
| 20260831071529 | 70 | 229 | 8.0 | 15.0 | 0.00 | 0.04 | 0.00 | 46 | 1008.6 |
| 20260831070028 | 68 | 134 | 8.0 | 14.0 | 0.00 | 0.04 | 0.00 | 49 | 1008.7 |
| 20260831064523 | 67 | 124 | 2.0 | 8.0 | 0.00 | 0.04 | 0.00 | 53 | 1008.8 |
| 20260831063030 | 69 | 77 | 2.0 | 9.0 | 0.00 | 0.04 | 0.00 | 48 | 1008.5 |
| 20260831061518 | 68 | 118 | 5.0 | 10.0 | 0.00 | 0.04 | 0.00 | 49 | 1008.5 |
| 20260831060019 | 69 | 125 | 3.0 | 11.0 | 0.00 | 0.04 | 0.00 | 49 | 1008.6 |
| 20260831054518 | 68 | 139 | 6.0 | 11.0 | 0.00 | 0.05 | 0.04 | 50 | 1008.6 |
| 20260831053015 | 69 | 248 | 1.0 | 6.0 | 0.00 | 0.05 | 0.04 | 50 | 1008.8 |
| 20260831051514 | 68 | 139 | 7.0 | 12.0 | 0.00 | 0.05 | 0.04 | 52 | 1008.8 |
| 20260831050014 | 68 | 150 | 4.0 | 10.0 | 0.00 | 0.05 | 0.04 | 52 | 1008.7 |
| 20260831044513 | 68 | 147 | 3.0 | 5.0 | 0.00 | 0.08 | 0.04 | 51 | 1008.7 |
| 20260831043012 | 68 | 131 | 0.0 | 0.0 | 0.00 | 0.08 | 0.04 | 52 | 1008.5 |
| 20260831041512 | 69 | 132 | 0.0 | 0.0 | 0.00 | 0.08 | 0.04 | 51 | 1008.4 |
| 20260831040012 | 69 | 135 | 0.0 | 0.0 | 0.00 | 0.08 | 0.04 | 51 | 1008.3 |
| 20260831034511 | 69 | 104 | 1.0 | 3.0 | 0.00 | 0.12 | 0.04 | 51 | 1008.2 |
| 20260831033010 | 69 | 134 | 2.0 | 4.0 | 0.00 | 0.12 | 0.04 | 52 | 1008.2 |
| 20260831031510 | 69 | 134 | 2.0 | 5.0 | 0.00 | 0.12 | 0.04 | 52 | 1008.1 |
| 20260831030011 | 70 | 145 | 1.0 | 3.0 | 0.00 | 0.12 | 0.04 | 52 | 1007.8 |
| 20260831024509 | 70 | 155 | 1.0 | 3.0 | 0.00 | 0.12 | 0.04 | 51 | 1007.7 |
| 20260831023009 | 71 | 143 | 0.0 | 1.0 | 0.00 | 0.12 | 0.04 | 52 | 1007.6 |
| 20260831021513 | 72 | 96 | 0.0 | 2.0 | 0.00 | 0.12 | 0.04 | 50 | 1007.4 |
| 20260831020007 | 73 | 39 | 1.0 | 3.0 | 0.00 | 0.12 | 0.04 | 49 | 1007.4 |
| 20260831014509 | 74 | 354 | 2.0 | 4.0 | 0.00 | 0.24 | 0.04 | 48 | 1007.4 |
| 20260831013006 | 74 | 22 | 3.0 | 6.0 | 0.00 | 0.24 | 0.04 | 47 | 1007.3 |
| 20260831011510 | 75 | 28 | 2.0 | 9.0 | 0.00 | 0.24 | 0.04 | 46 | 1007.4 |
| 20260831010005 | 75 | 340 | 5.0 | 9.0 | 0.00 | 0.24 | 0.04 | 46 | 1007.3 |
| 20260831004505 | 75 | 339 | 6.0 | 12.0 | 0.00 | 0.24 | 0.04 | 46 | 1007.5 |
| 20260831003005 | 75 | 27 | 4.0 | 9.0 | 0.00 | 0.24 | 0.04 | 45 | 1007.5 |
| 20260831001502 | 76 | 8 | 3.0 | 10.0 | 0.00 | 0.24 | 0.04 | 44 | 1007.7 |
| 20260831000000 | 76 | 36 | 3.0 | 10.0 | 0.00 | 0.24 | 0.04 | 45 | 1007.5 |
| 20260830234600 | 75 | 6 | 3.0 | 8.0 | 0.00 | 0.25 | 0.04 | 48 | 1007.6 |
| 20260830233100 | 74 | 50 | 3.0 | 12.0 | 0.00 | 0.25 | 0.04 | 51 | 1007.8 |
| 20260830231559 | 74 | 18 | 6.0 | 8.0 | 0.00 | 0.25 | 0.04 | 49 | 1007.9 |
| 20260830230058 | 74 | 60 | 3.0 | 9.0 | 0.00 | 0.25 | 0.04 | 50 | 1007.9 |
| 20260830224556 | 74 | 61 | 5.0 | 11.0 | 0.00 | 0.25 | 0.04 | 50 | 1008.0 |
| 20260830223055 | 74 | 19 | 6.0 | 16.0 | 0.00 | 0.25 | 0.04 | 50 | 1007.9 |
| 20260830221554 | 73 | 352 | 8.0 | 12.0 | 0.00 | 0.25 | 0.04 | 51 | 1008.1 |
| 20260830220054 | 73 | 9 | 3.0 | 12.0 | 0.00 | 0.25 | 0.04 | 51 | 1008.0 |
| 20260830214554 | 75 | 34 | 4.0 | 7.0 | 0.00 | 0.25 | 0.04 | 47 | 1007.8 |
| 20260830213052 | 76 | 63 | 4.0 | 9.0 | 0.00 | 0.25 | 0.04 | 43 | 1007.8 |
| 20260830211550 | 77 | 167 | 3.0 | 7.0 | 0.00 | 0.25 | 0.04 | 43 | 1007.9 |
| 20260830210048 | 77 | 243 | 2.0 | 7.0 | 0.00 | 0.25 | 0.04 | 45 | 1008.2 |
| 20260830204544 | 76 | 354 | 4.0 | 15.0 | 0.00 | 0.25 | 0.04 | 49 | 1008.1 |
| 20260830203042 | 75 | 325 | 4.0 | 14.0 | 0.00 | 0.25 | 0.04 | 49 | 1008.6 |
| 20260830201543 | 75 | 70 | 6.0 | 13.0 | 0.00 | 0.25 | 0.04 | 51 | 1008.5 |
| 20260830200040 | 76 | 79 | 4.0 | 11.0 | 0.00 | 0.25 | 0.04 | 51 | 1008.6 |
| 20260830194547 | 75 | 268 | 3.0 | 10.0 | 0.00 | 0.25 | 0.04 | 54 | 1008.8 |
| 20260830193037 | 75 | 322 | 1.0 | 8.0 | 0.00 | 0.25 | 0.04 | 54 | 1009.0 |
| 20260830191537 | 74 | 1 | 2.0 | 9.0 | 0.00 | 0.25 | 0.04 | 56 | 1009.3 |
| 20260830190035 | 73 | 239 | 4.0 | 12.0 | 0.00 | 0.25 | 0.04 | 56 | 1009.5 |
| 20260830184533 | 73 | 22 | 5.0 | 13.0 | 0.00 | 0.25 | 0.04 | 56 | 1009.7 |